Latest METARs, TAFs and NOTAMs for MYNN


---------------------------------------------------------------------------
	(OBSERVATIONS)
MYNN 242200Z 14013KT 9999 -RA FEW016CB SCT030 OVC080 25/22 A3009
    RMK CB SE=
MYNN 242100Z 16004KT 9999 -RA EW016CB SCT030 OVC080 27/24 A3008
    RMK CB SE=
MYNN 242000Z 11005KT 9000 -SHRA FEW016 SCT060 OVC080 26/23 A3009=
---------------------------------------------------------------------------
	(TERMINAL AREA FORECAST)
MYNN 242200Z 2500/2524 16004KT 9999 SHRA FEW015CB SCT040
    OVC080
    BECMG 2506/2508 14015KT 9999 FEW018CB BKN080 PROB30
    TEMPO 2518/2524 14015K30KT 4800 TSRA SCT012CB BKN040
    OVC060=
---------------------------------------------------------------------------
	(NOTAMS)


MYNN A0058/18 ATS WILL ONLY ACCEPT NON-CLOSURE PLN'S TO MYSM
    MYCA MYCX MYCH MYCB MYAP MYCI MYCP MYMM MYRP MYLD MYLS DUE
    TO LACK OF COM. 28 FEB 18:00 2018 UNTIL PERM. CREATED: 28
    FEB 16:59 2018

MYNN A0068/13 VOR Y RWY 14 FEEDER RTE FM MAJUR TO MUNIE NOT AVBL
    VOR Y RWY 14 FEEDER RTE FM MELON TO MUNIE NOT AVBL. SFC -
    UNL, 19 APR 19:55 2013 UNTIL PERM. CREATED: 19 APR 19:51
    2013

MYNN A0069/13 VOR Y RWY 09 FEEDER RTE FM MAJUR TO MUSSE NOT AVBL
    REMOVE PROCEDURE NOTE 'RADAR REQUIRED' FM APP CHART. SFC
    - UNL, 19 APR 19:55 2013 UNTIL PERM. CREATED: 19 APR 19:52
    2013

MYNN A0070/13 VOR Y RWY 32 FEEDER RTE FM PRUNE TO WELKS NOT AVBL
    REMOVE PROCEDURE NOTE 'RADAR REQUIRED' FM APP CHART. SFC
    - UNL, 19 APR 19:55 2013 UNTIL PERM. CREATED: 19 APR 19:54
    2013

MYNN A0108/15 INFORMATION LISTED IN AIC 3/2015 WITH THE EXCEPTION
    OF MYNN AND MYGF RNAV APCH PROC IN THE BAHAMAS ARE NOT AUTH
    DUE TO AIRSPACE CLASSIFICATION RESTRICTIONS. 01 JUN 18:00
    2015 UNTIL PERM. CREATED: 04 APR 19:48 2018

MYNN A0133/18 CHECKLIST (A) SERIES YEAR=2010 0277 YEAR=2013 0068
    0069 0070 YEAR=2015 0108 109 YEAR=2016 0221 0266 0291 0316
    YEAR=2017 0226 0227 0264 0265 0275 YEAR=2018 0054 0055 0056
    0057 0058 0059 0120 0126 0129 0130 0131 0132 LATEST PUBLICATIONS
    SUPPLEMENT 01/2O17 02/2017 AIP AMDT 01/16 EFFECTIVE MAY 26,
    2016 AIC 03/16. 05 JUN 16:15 2018 UNTIL 30 JUN 23:59 2018.
    CREATED: 05 JUN 16:09 2018

MYNN A0227/17 REF THE BAHAMAS AIP GEN 3.3 AIR TRAFFIC SERVICES
    AERODROME FLIGHT INFORMATION SERVICE (AFIS) WILL BE DEPICTED
    AS AFIS/ADVISORY SERVICE (AERODROME FLIGHT INFORMATION SERVICE
    / ADVISORY SERVICE) CHANGES AND UPDATES TO BE MADE IN THE
    AIP. 19 SEP 21:00 2017 UNTIL PERM. CREATED: 20 SEP 13:33
    2017

MYNN A0316/16 WIE THE DEPARTMENT OF CIVIL AVIATION BANS ALL SAMSUNG
    GALAXY NOTE 7 PHONES FROM ACFT TRAVELLING IN THE BAHAMAS.
    DEVICES MAY NOT BE TRANSPORTED BY PASSENGERS OR CREW ON THEIR
    PERSON, IN CARRY-ON BAGGAGE, OR IN CHECKED BAGGAGE ON FLIGHTS
    TO, FROM, OR WITHIN THE COMMONWEALTH OF THE BAHAMAS AND CANNOT
    BE SHIPPED AS AIR CARGO. 20 OCT 15:30 2016 UNTIL PERM. CREATED:
    20 OCT 15:12 2016

MYNN B0013/18 CHECKLIST (B) SERIES YEAR=2016 0024 0028 YEAR=2018
    0007 0008 0012 LATEST PUBLICATIONS SUPPLEMENT 01/2017 02/2017
    AIP AMDT 01/16 EFFECTIVE MAY 26, 2016 AIC 03/16. 05 JUN 16:00
    2018 UNTIL 30 JUN 23:59 2018. CREATED: 05 JUN 15:56 2018

---------------------------------------------------------------------------